Weather Roundup
Issued by NWS Springfield, MO

Current Version | Previous Version | Text Only | Print | Product List | Glossary On
Versions: 1 2 3 4 5 6 7 8 9 10 11 12 13 14 15 16 17 18 19 20 21 22 23 24 25 26 27 28 29 30 31 32 33 34 35 36 37 38 39 40 41 42 43 44 45 46 47 48 49 50
000
NZUS99 KSGF 301107
HRRSGF

HOURLY WEATHER
NATIONAL WEATHER SERVICE SPRINGFIELD MO
600 AM CDT SUN APR 30 2017

......SGF CWA......

CITY           SKY/WX    TMP DP  RH WIND       PRES   REMARKS
SPRINGFIELD    TSTM      64  62  93 SE16      29.56F
JOPLIN         LGT RAIN  59  58  96 SW14      29.57R FOG
ROLLA          LGT RAIN  61  32  33 E21G30    29.63F
OSAGE BEACH    CLOUDY    62  61  96 E12       29.60F
BRANSON        FOG       63  63 100 SE10      29.62R VSB 3/4

......SURROUNDING SGF CWA......

CITY           SKY/WX    TMP DP  RH WIND       PRES   REMARKS
CHANUTE        CLOUDY    56  54  93 NW6       29.51R
PARSONS        LGT RAIN  58  56  93 SE7       29.50F
COFFEYVILLE    CLOUDY    55  54  96 SE12      29.48F
EMPORIA        RAIN      42  42 100 VRB3      29.59R FOG
GROVE OK       CLOUDY    55  55 100 S6        29.57F
ROGERS AR      LGT RAIN  57  56  96 S5        29.60S
SILOAM SPRINGS CLOUDY    55  50  82 SW8       29.59F
HARRISON AR    CLOUDY    63  63 100 SE8       29.62R
NEAR YELLVILLE CLOUDY    64  61  88 SE12G17   29.60S THUNDER

......KANSAS AND MISSOURI......

CITY           SKY/WX    TMP DP  RH WIND       PRES   REMARKS
KANSAS CTY INT LGT RAIN  43  42  97 NE18      29.58F FOG
DOWNTOWN KC    CLOUDY   N/A N/A N/A NE12      29.59F FOG
COLUMBIA       CLOUDY    54  54 100 SE15G23   29.64R
SEDALIA        CLOUDY    57  57 100 N5        29.64R
ST JOSEPH      CLOUDY    42  42 100 NE16G24   29.64F
ST LOUIS       LGT RAIN  52  50  93 E8        29.75F
SPIRIT OF STL  LGT RAIN  50  50 100 E10       29.71F
KIRKSVILLE     CLOUDY    43  11  27 NE22G28   29.69F HAZE
WICHITA        DRIZZLE   44  41  89 E8        29.49R
TOPEKA         LGT RAIN  43  43 100 NE21G30   29.54F FOG
OLATHE         LGT RAIN  43  43 100 NE17G25   29.54F FOG

......TENNESSEE......

CITY           SKY/WX    TMP DP  RH WIND       PRES   REMARKS
MEMPHIS        CLOUDY    75  69  81 SE13G22   29.77R
NASHVILLE      CLOUDY    73  65  75 SW5       29.92R

......ARKANSAS.......

CITY           SKY/WX    TMP DP  RH WIND       PRES   REMARKS
FAYETTEVILLE   CLOUDY    57  57 100 S9        29.61R
FT SMITH       LGT RAIN  56  52  86 W8        29.61F
LITTLE ROCK    TSTM      70  70 100 SW13      29.65R FOG

......OKLAHOMA.......

CITY           SKY/WX    TMP DP  RH WIND       PRES   REMARKS
TULSA          CLOUDY    52  50  93 SW13G22   29.57R
PONCA CITY     CLOUDY    48  45  89 SW9       29.51F
MCALESTER      CLOUDY    52  48  86 SW13      29.66R
OKLAHOMA CITY  CLOUDY    46  45  96 SW15      29.56F

......IOWA............

CITY           SKY/WX    TMP DP  RH WIND       PRES   REMARKS
DES MOINES     DRIZZLE   41  39  93 NE15G22   29.83F
QUAD CITIES    CLOUDY    44  41  89 E24G31    29.82F

......ILLINOIS........

CITY           SKY/WX    TMP DP  RH WIND       PRES   REMARKS
QUINCY         CLOUDY    46  46 100 E21G26    29.63F
CHICAGO        DRIZZLE   42  41  96 NE14      29.92R




USA.gov is the U.S. government's official web portal to all federal, state and local government web resources and services.